Regional Weather Roundup
Issued by NWS

Home | Current Version | Previous Version | Text Only | Print | Product List | Glossary On
Versions: 1 2 3 4 5 6 7 8 9 10 11 12 13 14 15 16 17 18 19 20 21 22 23 24 25 26 27 28 29 30 31 32 33 34 35 36 37 38 39 40 41 42 43 44 45 46 47 48 49 50
000
ASCA44 KEWX 211620
RWRMX

LATIN AMERICA AND CARIBBEAN REGIONAL WEATHER ROUNDUP
NATIONAL WEATHER SERVICE AUSTIN/SAN ANTONIO TX
1100 AM CDT THU SEP 21 2017

NOTE: "FAIR" INDICATED FEW OR NO CLOUDS BELOW 12,000 FEET WITH NO
SIGNIFICANT WEATHER AND/OR OBSTRUCTIONS TO VISIBILITY.

BAJA CALIFORNIA

CITY           SKY/WX    TMP DP  RH WIND       PRES   REMARKS
LORETO         SUNNY     86  73  66 CALM      29.81R HX  93
LA PAZ         SUNNY     81  64  57 S10       29.87R
MEXICALI       SUNNY     77  39  25 NW7       29.75R
S.J. DEL CABO  SUNNY     86  66  51 CALM      29.86R
TIJUANA        CLOUDY    68  54  60 CALM      29.93R

NORTHWESTERN MEXICO

CITY           SKY/WX    TMP DP  RH WIND       PRES   REMARKS
CULIACAN       MOSUNNY   84  75  74 CALM      29.82R HX  92
DURANGO        PTSUNNY   66  59  77 CALM      30.24R
GUAYMAS        SUNNY     88  77  70 CALM      29.79R HX 100
HERMOSILLO     SUNNY     88  66  48 SE7       29.88R HX  90
CD. JUAREZ     MOSUNNY   79  52  38 SW9       30.04S
LOS MOCHIS     MOSUNNY   88  72  58 W10       29.82S HX  94
OBREGON        SUNNY     88  73  62 CALM      29.80R HX  96

NORTHEASTERN MEXICO

CITY           SKY/WX    TMP DP  RH WIND       PRES   REMARKS
CHIHUAHUA      SUNNY     75  54  46 CALM      30.12R
MATAMOROS      PTSUNNY   90  77  66 SE13      29.92S HX 102
MONCLOVA       MOSUNNY   84  66  54 CALM      29.94R
MONTERREY      CLOUDY    79  70  73 SE8       29.93S
NUEVO LAREDO   PTSUNNY   84  73  70 S15       29.91R HX  91
PIEDRAS NEGRAS CLOUDY    82  73  74 SE12      29.94R
REYNOSA        MOSUNNY   88  70  55 S9G21     29.90S HX  92
SALTILLO       PTSUNNY   75  63  64 NE7       30.17S
TORREON        SUNNY     81  63  54 CALM      30.07R
CD. VICTORIA   MOSUNNY   86  70  58 S12       29.93S HX  90

WESTERN MEXICO

CITY           SKY/WX    TMP DP  RH WIND       PRES   REMARKS
AGUASCALIENTES PTSUNNY   70  54  56 NE7       30.26
COLIMA         CLOUDY    73  73 100 CALM      29.98R FOG
DEL BAJIO      PTSUNNY   72  57  60 E9        30.26S
GUADALAJARA    PTSUNNY   68  61  77 CALM      30.16R
MANZANILLO     CLOUDY    77  77 100 CALM      29.83F
MAZATLAN       MOSUNNY   88  77  70 CALM      29.82S HX 100
P. VALLARTA    CLOUDY    84  81  89 SE2       29.82R HX  98
URUAPAN        CLOUDY    72  63  73 CALM      30.14R
ZACATECAS      MOSUNNY   66  54  63 SE12      30.28S

CENTRAL MEXICO

CITY           SKY/WX    TMP DP  RH WIND       PRES   REMARKS
CUERNAVACA       N/A    N/A N/A N/A MISG        N/A
MEXICO CITY    PTSUNNY   66  55  68 NE5       30.31S
MORELIA        CLOUDY    68  63  83 CALM      30.20S
POZA RICA      PTSUNNY   84  77  79 NE6       29.96F HX  94
PUEBLA         MOSUNNY   68  55  64 NW3       30.31S
QUERETARO      PTSUNNY   68  57  68 E9        30.28R
S. LUIS POTOSI CLOUDY    70  52  52 E8        30.24S
TAMPICO        MOSUNNY   82  77  83 NE9       29.94R HX  91
TOLUCA         PTSUNNY   61  54  77 SE3       30.35S FOG

SOUTHERN MEXICO

CITY           SKY/WX    TMP DP  RH WIND       PRES   REMARKS
ACAPULCO       CLOUDY    79  75  89 E5        29.88S
B. DE HUATULCO MOSUNNY  N/A N/A N/A CALM      29.91S
OAXACA         PTSUNNY   72  61  68 CALM      30.20F
P. ESCONDIDO   MOSUNNY   84  75  74 CALM      29.97  HX  92
VERACRUZ       MOSUNNY   84  77  79 CALM      29.89S HX  94
ZIHUATANEJO    RAIN      77  75  94 CALM      29.89R

YUCATAN PENINSULA

CITY           SKY/WX    TMP DP  RH WIND       PRES   REMARKS
CAMPECHE       MOSUNNY   88  79  74 E12       29.89S HX 102
CANCUN         PTSUNNY   88  77  70 E5        29.95S HX 100
CHETUMAL       MOSUNNY   88  77  70 SE8       29.91S HX 100
CD. DEL CARMEN PTSUNNY  N/A N/A N/A SE14      29.88F
COZUMEL        PTSUNNY   88  77  70 NE5       29.93S HX 100
MERIDA         PTSUNNY   90  75  62 SE9       29.93S HX 100
MINATITLAN     MOSUNNY   82  79  89 CALM      29.87S HX  93
TAPACHULA      MOSUNNY   86  79  79 S3        29.86F HX  99
TUX. GUTIERREZ PTSUNNY   81  73  78 E2        29.95F
VILLAHERMOSA   CLOUDY    82  77  83 NE6       29.90F HX  91

CENTRAL AMERICA

CITY           SKY/WX    TMP DP  RH WIND       PRES   REMARKS
BELIZE CITY    MOSUNNY   90  79  70 E10       29.88S HX 105
MANAGUA        MOSUNNY   86  73  66 E5        29.83S HX  93

CARIBBEAN

CITY           SKY/WX    TMP DP  RH WIND       PRES   REMARKS
ARUBA          MOSUNNY   88  79  74 SE10      29.80F HX 102
KINGSTON       MOSUNNY   90  77  66 S9        29.83F HX 102
NASSAU         MOSUNNY  N/A N/A N/A N8        29.96S
SANTO DOMINGO  PTSUNNY   84  77  79 SW28G39   29.65S HX  94
ST. KITTS      MOSUNNY   88  79  74 E9        29.89F HX 102

$$





USA.gov is the U.S. government's official web portal to all federal, state and local government web resources and services.